Weather History for KDFI - September, 2012

Change the Weather History Date:

Wednesday, September 26, 2012

  Actual Average Record
Temperature  
Mean Temperature 67 °F -  
Max Temperature 72 °F 70 °F 91 °F (1998)
Min Temperature 60 °F 46 °F 32 °F (1940)
Cooling Degree Days 2    
Growing Degree Days 17 (Base 50)    
Moisture  
Dew Point 61 °F    
Average Humidity 84    
Maximum Humidity 94    
Minimum Humidity 73    
Precipitation  
Precipitation 0.00 in - - ()
Sea Level Pressure  
Sea Level Pressure 29.98 in    
Wind  
Wind Speed 6 mph (SSW)    
Max Wind Speed 10 mph    
Max Gust Speed 17 mph    
Visibility 8 miles    
Events      
Averages and records for this station are not official NWS values.
T = Trace of Precipitation, MM = Missing Value Source: NWS Daily Summary

Daily Weather History Graph

Daily Weather History Graph

Search for Another Location

Airport or City:

Trip Planner

Search our weather history database for the weather conditions in past years. The results will help you decide how hot, cold, wet, or windy it might be!

Date:

Astronomy

Sep. 26, 2012 Rise Set
Actual Time 7:29 AM EDT 7:27 PM EDT
Civil Twilight 7:02 AM EDT 7:54 PM EDT
Nautical Twilight 6:30 AM EDT 8:26 PM EDT
Astronomical Twilight 5:57 AM EDT 8:59 PM EDT
Moon 5:27 PM EDT (9/26) 3:52 AM EDT (9/26)
Length of Visible Light 12h 52m
Length of Day
11h 57m
Waxing Gibbous, 88% of the Moon is Illuminated
Sep 26
Waxing Gibbous
Sep 29
Full
Oct 8
Last Quarter
Oct 15
New
Oct 21
First Quarter

Hourly Weather History & Observations

Time (EDT) Temp. Dew Point Humidity Pressure Visibility Wind Dir Wind Speed Gust Speed Precip Events Conditions
12:46 AM 64.4 °F 60.8 °F 88% 29.93 in 6.0 mi SSW 8.1 mph - N/A   Overcast
12:53 AM 64.0 °F 61.0 °F 90% 29.92 in 6.0 mi SSW 6.9 mph - N/A   Overcast
1:53 AM 63.0 °F 60.1 °F 90% 29.91 in 6.0 mi South 6.9 mph - N/A   Overcast
2:53 AM 63.0 °F 60.1 °F 90% 29.92 in 6.0 mi SSW 6.9 mph - N/A   Overcast
4:41 AM 62.6 °F 60.8 °F 94% 29.90 in 7.0 mi SW 3.5 mph - N/A   Overcast
4:49 AM 64.4 °F 60.8 °F 88% 29.90 in 7.0 mi SW 3.5 mph - N/A   Overcast
4:53 AM 64.0 °F 61.0 °F 90% 29.90 in 7.0 mi SW 3.5 mph - N/A   Overcast
5:53 AM 64.9 °F 61.0 °F 87% 29.90 in 9.0 mi SW 6.9 mph - N/A   Mostly Cloudy
6:06 AM 64.4 °F 62.6 °F 94% 29.91 in 9.0 mi SW 5.8 mph - N/A   Mostly Cloudy
6:38 AM 64.4 °F 60.8 °F 88% 29.91 in 10.0 mi SSW 8.1 mph - N/A   Overcast
6:53 AM 64.9 °F 61.0 °F 87% 29.91 in 10.0 mi SSW 8.1 mph - N/A   Overcast
7:53 AM 64.9 °F 61.0 °F 87% 29.94 in 10.0 mi SW 5.8 mph - N/A   Overcast
8:53 AM 64.9 °F 61.0 °F 87% 29.95 in 10.0 mi Variable 4.6 mph - N/A   Overcast
9:25 AM 66.2 °F 60.8 °F 83% 29.96 in 10.0 mi SW 6.9 mph - N/A   Overcast
9:53 AM 66.0 °F 61.0 °F 84% 29.96 in 10.0 mi WSW 3.5 mph - N/A   Overcast
10:53 AM 66.0 °F 61.0 °F 84% 29.98 in 10.0 mi SW 5.8 mph - N/A   Overcast
12:53 PM 69.1 °F 63.0 °F 81% 29.99 in 10.0 mi SW 8.1 mph - N/A   Overcast
1:06 PM 69.8 °F 62.6 °F 78% 30.00 in 10.0 mi WSW 5.8 mph - N/A   Overcast
1:53 PM 72.0 °F 63.0 °F 73% 29.99 in 10.0 mi SW 8.1 mph - N/A   Scattered Clouds
2:03 PM 71.6 °F 62.6 °F 73% 30.00 in 10.0 mi SW 9.2 mph - N/A   Mostly Cloudy
2:34 PM 71.6 °F 62.6 °F 73% 30.00 in 10.0 mi SW 10.4 mph - N/A   Scattered Clouds
2:53 PM 71.1 °F 63.0 °F 75% 30.00 in 10.0 mi SSW 10.4 mph - N/A   Clear
3:53 PM 72.0 °F 63.0 °F 73% 30.00 in 10.0 mi SW 10.4 mph 17.3 mph N/A   Partly Cloudy
4:53 PM 72.0 °F 63.0 °F 73% 29.99 in 10.0 mi SSW 8.1 mph - N/A   Partly Cloudy
6:53 PM 70.0 °F 63.0 °F 78% 30.02 in 10.0 mi Calm Calm - N/A   Overcast
7:53 PM 69.1 °F 61.0 °F 75% 30.06 in 10.0 mi NNE 3.5 mph - N/A   Overcast
8:53 PM 66.0 °F 60.1 °F 81% 30.08 in 8.0 mi East 3.5 mph - N/A   Overcast
9:44 PM 64.4 °F 60.8 °F 88% 30.09 in 7.0 mi Calm Calm - N/A   Mostly Cloudy
9:53 PM 63.0 °F 59.0 °F 87% 30.09 in 7.0 mi Calm Calm - N/A   Overcast
10:53 PM 62.1 °F 59.0 °F 90% 30.09 in 5.0 mi ENE 5.8 mph - N/A   Overcast
11:53 PM 60.1 °F 57.9 °F 93% 30.11 in 4.0 mi NE 3.5 mph - N/A   Overcast